Hourly Data Report for October 04, 2014

All times are specified in Local Standard Time (LST). Add 1 hour to adjust for Daylight Saving Time where and when it is observed.

QIKIQTARJUAQ A
NUNAVUT

67°32'48.000" N
64°01'54.000" W
5.50 m
2400577
YVM

Download Data

Hourly Data (October 2014)
Hourly Data Report for October 4, 2014
Temp Definition
°C
Dew Point Temp Definition
°C
Rel Hum Definition
%
Wind Dir Definition
10's deg

Wind Spd Definition
km/h
Visibility Definition
km
Stn Press Definition
kPa
Hmdx Definition


Wind Chill Definition


Weather Definition


TIME
00:00 Legend Double Dagger -2.1 -3.9 88 7 5 12.9 101.32   -4 Snow
01:00 Legend Double Dagger -1.6 -2.2 96 LegendMM 4 2.0 101.33   -3 Snow
02:00 Legend Double Dagger -1.4 -2.1 95 30 5 1.6 101.39   -3 Snow
03:00 Legend Double Dagger -0.3 -2.2 87 35 22 16.1 101.42   -6 Snow
04:00 Legend Double Dagger -0.5 -3.3 81 32 18 16.1 101.46   -6 Snow
05:00 Legend Double Dagger -0.7 -3.9 79 31 18 16.1 101.50   -6 LegendNANA
06:00 Legend Double Dagger -1.1 -3.6 83 30 22 16.1 101.53   -7 LegendNANA
07:00 Legend Double Dagger -0.9 -4.4 78 30 18 16.1 101.60   -6 LegendNANA
08:00 Legend Double Dagger -0.5 -5.3 70 30 18 16.1 101.61   -6 LegendNANA
09:00 Legend Double Dagger -0.2 -4.6 73 34 18 16.1 101.65   -5 LegendNANA
10:00 Legend Double Dagger -0.8 -3.8 80 34 15 9.7 101.67   -5 Snow
11:00 Legend Double Dagger -0.1 -4.7 71 34 21 16.1 101.73   -6 Snow
12:00 Legend Double Dagger -0.2 -3.7 77 35 17 16.1 101.78   -5 LegendNANA
13:00 Legend Double Dagger -0.1 -4.2 74 35 13 16.1 101.83   -4 LegendNANA
14:00 Legend Double Dagger -0.3 -5.2 70 35 9 16.1 101.88   -3 LegendNANA
15:00 Legend Double Dagger -0.2 -4.5 73 34 15 16.1 101.93   -5 LegendNANA
16:00 Legend Double Dagger -0.3 -5.0 71 32 13 16.1 101.99   -4 LegendNANA
17:00 Legend Double Dagger -0.3 -5.3 69 32 11 16.1 102.06   -4 LegendNANA
18:00 Legend Double Dagger -0.8 -5.4 71 32 9 16.1 102.12   -4 LegendNANA
19:00 Legend Double Dagger -2.8 -6.4 76 23 8 16.1 102.15   -6 LegendNANA
20:00 Legend Double Dagger -3.3 -6.8 77 14 5 16.1 102.16   -5 LegendNANA
21:00 Legend Double Dagger -2.3 -6.4 74 19 15 16.1 102.20   -7 LegendNANA
22:00 Legend Double Dagger -3.5 -7.0 77 16 9 16.1 102.20   -7 LegendNANA
23:00 Legend Double Dagger -2.4 -6.4 74 19 13 16.1 102.21   -7 LegendNANA

Notes on Data Quality.

Legend

  • E = Estimated
  • M = Missing
  • NA = Not Available
  • ‡ = Partner data that is not subject to review by the National Climate Archives
Date modified: